When you browse on this site, cookies collect data to enhance your experience and personalize the content and advertising you see.
Visit our Privacy Policy to learn more. By continuing to use the site, you agree to this use of cookies and data.
  • En España
  • Lista de países
  • Para 7 días
  • Temperatura del agua
  • El tiempo en el mapa
  • Informadores
  • user-avatar
    Iniciar sesión

    Tiempo cada hora Río Bueno

    Hoy, 22 Enero, Miércoles

    Tiempo Temperatura Precipitaciones Viento Presión Humedad
    00:00 +15°C° 0 mm 1 mps 757 mmHg 80%
    01:00 +14°C° 0 mm 1 mps 756 mmHg 86%
    02:00 +13°C° 0 mm 1 mps 756 mmHg 89%
    03:00 +13°C° 0 mm 1 mps 756 mmHg 91%
    04:00 +12°C° 0 mm 1 mps 756 mmHg 94%
    05:00 +13°C° 0 mm 1 mps 756 mmHg 90%
    06:00 +14°C° 0 mm 2 mps 756 mmHg 86%
    07:00 +15°C° 0 mm 2 mps 756 mmHg 81%
    08:00 +18°C° 0 mm 2 mps 756 mmHg 72%
    09:00 +20°C° 0 mm 2 mps 756 mmHg 63%
    10:00 +24°C° 0 mm 2 mps 755 mmHg 53%
    11:00 +26°C° 0 mm 2 mps 755 mmHg 46%
    12:00 +28°C° 0 mm 3 mps 755 mmHg 39%
    13:00 +31°C° 0 mm 3 mps 755 mmHg 31%
    14:00 +30°C° 0 mm 3 mps 754 mmHg 31%
    15:00 +30°C° 0 mm 3 mps 754 mmHg 31%
    16:00 +30°C° 0 mm 4 mps 754 mmHg 31%
    17:00 +27°C° 0 mm 3 mps 754 mmHg 39%
    18:00 +25°C° 0 mm 2 mps 754 mmHg 47%
    19:00 +21°C° 0 mm 2 mps 755 mmHg 55%
    20:00 +20°C° 0 mm 2 mps 755 mmHg 62%
    21:00 +18°C° 0 mm 2 mps 755 mmHg 69%
    22:00 +16°C° 0 mm 2 mps 756 mmHg 76%
    23:00 +15°C° 0 mm 1 mps 756 mmHg 81%

    Mañana, 23 Enero, Jueves

    Tiempo Temperatura Precipitaciones Viento Presión Humedad
    00:00 +14°C° 0 mm 1 mps 756 mmHg 86%
    01:00 +13°C° 0 mm 1 mps 756 mmHg 91%
    02:00 +13°C° 0 mm 1 mps 756 mmHg 93%
    03:00 +12°C° 0 mm 1 mps 757 mmHg 95%
    04:00 +12°C° 0 mm 1 mps 757 mmHg 98%
    05:00 +13°C° 0 mm 1 mps 757 mmHg 92%
    06:00 +14°C° 0 mm 1 mps 758 mmHg 87%
    07:00 +16°C° 0 mm 1 mps 758 mmHg 82%
    08:00 +19°C° 0 mm 1 mps 758 mmHg 72%
    09:00 +21°C° 0 mm 2 mps 758 mmHg 61%
    10:00 +24°C° 0 mm 2 mps 759 mmHg 51%
    11:00 +26°C° 0 mm 2 mps 759 mmHg 45%
    12:00 +28°C° 0 mm 2 mps 759 mmHg 39%
    13:00 +30°C° 0 mm 2 mps 759 mmHg 33%
    14:00 +29°C° 0 mm 3 mps 759 mmHg 35%
    15:00 +28°C° 0 mm 3 mps 759 mmHg 37%
    16:00 +27°C° 0 mm 4 mps 759 mmHg 39%
    17:00 +25°C° 0 mm 3 mps 759 mmHg 43%
    18:00 +21°C° 0 mm 3 mps 760 mmHg 48%
    19:00 +19°C° 0 mm 2 mps 760 mmHg 52%
    20:00 +17°C° 0 mm 2 mps 760 mmHg 61%
    21:00 +15°C° 0 mm 1 mps 760 mmHg 69%
    22:00 +12°C° 0 mm 1 mps 761 mmHg 78%
    23:00 +11°C° 0 mm 1 mps 761 mmHg 84%

    Pasado mañana, 24 Enero, Viernes

    Tiempo Temperatura Precipitaciones Viento Presión Humedad
    00:00 +10°C° 0 mm 1 mps 761 mmHg 90%
    01:00 +9°C° 0 mm 1 mps 761 mmHg 96%
    02:00 +8°C° 0 mm 0 mps 761 mmHg 97%
    03:00 +8°C° 0 mm 0 mps 761 mmHg 98%
    04:00 +7°C° 0 mm 0 mps 761 mmHg 98%
    05:00 +10°C° 0 mm 1 mps 761 mmHg 93%
    06:00 +11°C° 0 mm 1 mps 761 mmHg 88%
    07:00 +13°C° 0 mm 1 mps 761 mmHg 83%
    08:00 +16°C° 0 mm 1 mps 761 mmHg 68%
    09:00 +19°C° 0 mm 1 mps 761 mmHg 53%
    10:00 +22°C° 0 mm 1 mps 760 mmHg 37%
    11:00 +24°C° 0 mm 2 mps 760 mmHg 32%
    12:00 +26°C° 0 mm 2 mps 760 mmHg 28%
    13:00 +27°C° 0 mm 2 mps 760 mmHg 23%
    14:00 +27°C° 0 mm 2 mps 760 mmHg 24%
    15:00 +27°C° 0 mm 3 mps 760 mmHg 25%
    16:00 +27°C° 0 mm 3 mps 760 mmHg 26%
    17:00 +25°C° 0 mm 2 mps 760 mmHg 34%
    18:00 +21°C° 0 mm 2 mps 760 mmHg 41%
    19:00 +19°C° 0 mm 2 mps 761 mmHg 49%
    20:00 +17°C° 0 mm 2 mps 761 mmHg 57%
    21:00 +15°C° 0 mm 1 mps 761 mmHg 66%
    22:00 +13°C° 0 mm 1 mps 761 mmHg 74%
    23:00 +12°C° 0 mm 1 mps 761 mmHg 80%

    25 Enero, Sábado

    Tiempo Temperatura Precipitaciones Viento Presión Humedad
    00:00 +11°C° 0 mm 1 mps 761 mmHg 86%
    01:00 +10°C° 0 mm 1 mps 761 mmHg 92%
    02:00 +10°C° 0 mm 1 mps 761 mmHg 94%
    03:00 +9°C° 0 mm 0 mps 761 mmHg 95%
    04:00 +9°C° 0 mm 0 mps 761 mmHg 97%
    05:00 +11°C° 0 mm 1 mps 761 mmHg 89%
    06:00 +13°C° 0 mm 1 mps 760 mmHg 82%
    07:00 +14°C° 0 mm 1 mps 760 mmHg 74%
    08:00 +18°C° 0 mm 1 mps 760 mmHg 65%
    09:00 +20°C° 0 mm 2 mps 760 mmHg 56%
    10:00 +24°C° 0 mm 2 mps 760 mmHg 46%
    11:00 +26°C° 0 mm 2 mps 759 mmHg 45%
    12:00 +27°C° 0 mm 3 mps 759 mmHg 43%
    13:00 +29°C° 0 mm 3 mps 759 mmHg 41%
    14:00 +28°C° 0 mm 3 mps 759 mmHg 44%
    15:00 +28°C° 0 mm 3 mps 759 mmHg 46%
    16:00 +28°C° 0 mm 3 mps 759 mmHg 48%
    17:00 +26°C° 0 mm 3 mps 759 mmHg 56%
    18:00 +24°C° 0 mm 2 mps 759 mmHg 64%
    19:00 +21°C° 0 mm 2 mps 760 mmHg 72%
    20:00 +21°C° 0 mm 1 mps 760 mmHg 80%
    21:00 +19°C° 0 mm 1 mps 760 mmHg 89%
    22:00 +16°C° 0 mm 1 mps 760 mmHg 97%
    23:00 +16°C° 0 mm 1 mps 760 mmHg 97%

    26 Enero, Domingo

    Tiempo Temperatura Precipitaciones Viento Presión Humedad
    00:00 +16°C° 0 mm 1 mps 760 mmHg 98%
    01:00 +15°C° 0 mm 0 mps 760 mmHg 98%
    02:00 +16°C° 0 mm 1 mps 760 mmHg 97%
    03:00 +16°C° 0 mm 1 mps 760 mmHg 96%
    04:00 +16°C° 0 mm 1 mps 760 mmHg 94%
    05:00 +16°C° 0 mm 1 mps 760 mmHg 91%
    06:00 +18°C° 0 mm 1 mps 760 mmHg 88%
    07:00 +18°C° 0 mm 1 mps 760 mmHg 84%
    08:00 +19°C° 0 mm 2 mps 760 mmHg 75%
    09:00 +21°C° 0 mm 2 mps 760 mmHg 66%
    10:00 +24°C° 0 mm 2 mps 761 mmHg 56%
    11:00 +25°C° 0 mm 2 mps 760 mmHg 49%
    12:00 +27°C° 0 mm 2 mps 760 mmHg 43%
    13:00 +28°C° 0 mm 3 mps 760 mmHg 36%
    14:00 +28°C° 0 mm 3 mps 760 mmHg 35%
    15:00 +28°C° 0 mm 3 mps 759 mmHg 35%
    16:00 +29°C° 0 mm 3 mps 759 mmHg 35%
    17:00 +26°C° 0 mm 3 mps 760 mmHg 41%
    18:00 +24°C° 0 mm 2 mps 760 mmHg 47%
    19:00 +20°C° 0 mm 2 mps 760 mmHg 53%
    20:00 +19°C° 0 mm 1 mps 760 mmHg 65%
    21:00 +15°C° 0 mm 1 mps 761 mmHg 76%
    22:00 +13°C° 0 mm 1 mps 761 mmHg 87%
    23:00 +12°C° 0 mm 1 mps 761 mmHg 91%

    27 Enero, Lunes

    Tiempo Temperatura Precipitaciones Viento Presión Humedad
    00:00 +10°C° 0 mm 0 mps 761 mmHg 94%
    01:00 +9°C° 0 mm 0 mps 760 mmHg 97%
    02:00 +8°C° 0 mm 0 mps 760 mmHg 97%
    03:00 +8°C° 0 mm 0 mps 760 mmHg 98%
    04:00 +7°C° 0 mm 0 mps 760 mmHg 98%
    05:00 +10°C° 0 mm 1 mps 759 mmHg 92%
    06:00 +11°C° 0 mm 1 mps 759 mmHg 86%
    07:00 +13°C° 0 mm 1 mps 759 mmHg 79%
    08:00 +16°C° 0 mm 1 mps 759 mmHg 66%
    09:00 +20°C° 0 mm 1 mps 758 mmHg 52%
    10:00 +23°C° 0 mm 1 mps 758 mmHg 39%
    11:00 +26°C° 0 mm 1 mps 758 mmHg 33%
    12:00 +28°C° 0 mm 1 mps 757 mmHg 27%
    13:00 +30°C° 0 mm 1 mps 757 mmHg 21%
    14:00 +29°C° 0 mm 2 mps 757 mmHg 21%
    15:00 +29°C° 0 mm 2 mps 757 mmHg 20%
    16:00 +29°C° 0 mm 3 mps 756 mmHg 19%
    17:00 +26°C° 0 mm 2 mps 757 mmHg 24%
    18:00 +23°C° 0 mm 2 mps 757 mmHg 30%
    19:00 +19°C° 0 mm 2 mps 757 mmHg 35%
    20:00 +19°C° 0 mm 1 mps 757 mmHg 42%
    21:00 +18°C° 0 mm 1 mps 757 mmHg 49%
    22:00 +14°C° 0 mm 0 mps 757 mmHg 56%
    23:00 +15°C° 0 mm 0 mps 757 mmHg 57%
    Mostrar más